COSMOS 2251 DEB, 38208

Orbit data source: Space-Track

COSMOS 2251 DEB, 38208 is space debris in LEO originally from a launch on Wed, 16 Jun 1993 UTC launched from the Plesetsk Missile And Space Complex (PKMTR). The debris from Iridium 33, an American commercial communications satellite, has been tracked extensively since its accidental collision with the defunct Russian satellite Cosmos 2251 in 2009. This event, occurring at high speed in low Earth orbit (LEO), generated thousands of pieces of space debris, significantly increasing the risk of further collisions. The Iridium 33 debris cloud has impacted space traffic management and orbital debris mitigation strategies, making it a subject of ongoing study in space situational awareness.

Loading next visibility...
Identifier
38208, 1993-036BSY
Orbit
LEO
Country
Flag of CISCIS
Related business
Manufacturer
Unknown
Mission
Spacecraft
Bus & Motor
Unknown
Mass
Unknown
Launch date (UTC)
1993-06-16 (33 years ago)
Launch vehicle
Unknown
Launch site
Plesetsk Missile And Space Complex (PKMTR)
Object type
Payload
Rocket body
Debris
Shape & HBR
Unknown shape, 0.1 m
Radar Cross Section
Small (<0.1 m²)

Expand to show TLE details & history
Last TLE update: 2 days ago

TLE from 2 days ago
0 COSMOS 2251 DEB
1 38208U 93036BSY 26144.37885623  .00013843  00000-0  14119-2 0  9998
2 38208  74.0015 114.0576 0007212 198.9078 314.2408 14.90667563735776
Epoch: 2026-05-24T09:05Z
TLE epoch observation values (Epoch: 2026-05-24T09:05:33.178Z)
Latitude
25.83034°
Longitude
-92.24669°
Altitude
595.218 km
Speed
7.567 km/s
True Right ascension
19h 04m 29s
True Declination
25° 41' 33"
Sunlit
Object was in full shadow at epoch
Visualization orbit readout
Latitude
Unknown
Longitude
Unknown
Altitude
Unknown
Speed
Unknown
Apparent Right ascension
Unknown
Apparent Declination
Unknown
Sunlit
N/A
Visualization observer readout
Local Sidereal Time
19:13:28
Azimuth
Unknown
Elevation
Unknown
Doppler factor
Unknown
Orbital elements
Apogee altitude
598.448 km
Perigee altitude
588.392 km
Semi-major axis
6,971.557 km
Eccentricity
0.00072
Inclination
74.0015°
RAAN
114.0576°
Arg. of periapsis
198.9078°
True anomaly
314.18156°
Mean anomaly
314.2408°
Eccentric anomaly
314.21118°
Mean motion
3.72862 °/min
Orbital period
96.55 mins
BSTAR
0.0014119

Documentation

Showing up to 5 results
|